�������l�o���
Date,Time,MP-1(��Sv/h),MP-2(��Sv/h),MP-3(��Sv/h),MP-4(��Sv/h),MP-5(��Sv/h),MP-6(��Sv/h),MP-7(��Sv/h),����,����(m/s),���J
2013/09/22,00:00,0.9,0.6,0.9,0.8,0.8,0.4,0.3,���쐼,2.4,��
2013/09/22,00:10,0.9,0.6,0.9,0.8,0.8,0.4,0.3,���쐼,1.8,��
2013/09/22,00:20,0.9,0.6,0.9,0.8,0.8,0.4,0.3,���쐼,2.0,��
2013/09/22,00:30,0.9,0.6,0.9,0.8,0.8,0.4,0.3,�쐼,1.7,��
2013/09/22,00:40,0.9,0.6,0.9,0.8,0.8,0.4,0.3,���쐼,1.6,��
2013/09/22,00:50,0.9,0.6,0.9,0.8,0.8,0.4,0.3,���k��,1.6,��
2013/09/22,01:00,0.9,0.6,0.9,0.8,0.8,0.4,0.3,�k�k��,1.4,��
2013/09/22,01:10,0.9,0.6,0.9,0.8,0.8,0.4,0.3,�k�k��,1.4,��
2013/09/22,01:20,0.9,0.6,0.9,0.8,0.8,0.4,0.3,�k��,1.1,��
2013/09/22,01:30,0.9,0.6,0.9,0.8,0.8,0.4,0.3,�k��,1.4,��
2013/09/22,01:40,0.9,0.6,0.9,0.8,0.8,0.4,0.3,���k��,2.2,��
2013/09/22,01:50,0.9,0.6,0.9,0.8,0.8,0.4,0.3,��,3.7,��
2013/09/22,02:00,0.9,0.6,0.9,0.8,0.8,0.4,0.3,��,3.1,��
2013/09/22,02:10,0.9,0.6,0.9,0.8,0.8,0.4,0.3,���k��,3.9,��
2013/09/22,02:20,0.9,0.6,0.9,0.8,0.8,0.4,0.3,���k��,3.6,��
2013/09/22,02:30,0.9,0.6,0.9,0.8,0.8,0.4,0.3,���k��,3.8,��
2013/09/22,02:40,0.9,0.6,0.9,0.8,0.8,0.4,0.3,���k��,3.9,��
2013/09/22,02:50,0.9,0.6,0.9,0.8,0.8,0.4,0.3,��,4.5,��
2013/09/22,03:00,0.9,0.6,0.9,0.8,0.8,0.4,0.3,��,4.1,��
2013/09/22,03:10,0.9,0.6,0.9,0.8,0.8,0.4,0.3,��,3.3,��
2013/09/22,03:20,0.9,0.6,0.9,0.8,0.8,0.4,0.3,��,4.9,��
2013/09/22,03:30,0.9,0.6,0.9,0.8,0.8,0.4,0.3,��,4.3,��
2013/09/22,03:40,0.9,0.6,0.9,0.8,0.8,0.4,0.3,��,4.5,��
2013/09/22,03:50,0.9,0.6,0.9,0.8,0.8,0.4,0.3,���쐼,4.2,��
2013/09/22,04:00,0.9,0.6,0.9,0.8,0.8,0.4,0.3,���쐼,3.6,��
2013/09/22,04:10,0.9,0.6,0.9,0.8,0.8,0.4,0.3,���쐼,3.9,��
2013/09/22,04:20,0.9,0.6,0.9,0.8,0.8,0.4,0.3,��,3.9,��
2013/09/22,04:30,0.9,0.6,0.9,0.8,0.8,0.4,0.3,��,3.9,��
2013/09/22,04:40,0.9,0.6,0.9,0.8,0.8,0.4,0.3,��,3.0,��
2013/09/22,04:50,0.9,0.6,0.9,0.8,0.8,0.4,0.3,��,2.4,��
2013/09/22,05:00,0.9,0.6,0.9,0.8,0.8,0.4,0.3,��,0.6,��
2013/09/22,05:10,0.9,0.6,0.9,0.8,0.8,0.4,0.3,���쐼,2.8,��
2013/09/22,05:20,0.9,0.6,0.9,0.8,0.8,0.4,0.3,��,2.2,��
2013/09/22,05:30,0.9,0.6,0.9,0.8,0.8,0.4,0.3,���k��,1.5,��
2013/09/22,05:40,0.9,0.6,0.9,0.8,0.8,0.4,0.3,���k��,1.5,��
2013/09/22,05:50,0.9,0.6,0.9,0.8,0.8,0.4,0.3,�k��,0.7,��
2013/09/22,06:00,0.9,0.6,0.9,0.8,0.8,0.4,0.3,-,CALM,��
2013/09/22,06:10,0.9,0.6,0.9,0.8,0.8,0.4,0.3,��,1.1,��
2013/09/22,06:20,0.9,0.6,0.9,0.8,0.8,0.4,0.3,��,1.1,��
2013/09/22,06:30,0.9,0.6,0.9,0.8,0.8,0.4,0.3,���쓌,1.1,��
2013/09/22,06:40,0.9,0.6,0.9,0.8,0.8,0.4,0.3,��,1.2,��
2013/09/22,06:50,0.9,0.6,0.9,0.8,0.8,0.4,0.3,��,1.1,��
2013/09/22,07:00,0.9,0.6,0.9,0.8,0.8,0.4,0.3,�k��,2.0,��
2013/09/22,07:10,0.9,0.6,0.9,0.8,0.8,0.4,0.3,�k�k��,2.1,��
2013/09/22,07:20,0.9,0.6,0.9,0.8,0.8,0.4,0.3,�k,1.6,��
2013/09/22,07:30,0.9,0.6,0.9,0.8,0.8,0.4,0.3,�k,1.1,��
2013/09/22,07:40,0.9,0.6,0.9,0.8,0.8,0.4,0.3,�k�k��,0.9,��
2013/09/22,07:50,0.9,0.6,0.9,0.8,0.8,0.4,0.3,�k,1.2,��
2013/09/22,08:00,0.9,0.6,0.9,0.8,0.8,0.4,0.3,�k,1.4,��
2013/09/22,08:10,0.9,0.6,0.9,0.8,0.8,0.4,0.3,�k�k��,1.9,��
2013/09/22,08:20,0.9,0.6,0.9,0.8,0.8,0.4,0.3,�k,3.6,��
2013/09/22,08:30,0.9,0.6,0.9,0.8,0.8,0.4,0.3,�k�k��,3.6,��
2013/09/22,08:40,0.9,0.6,0.9,0.8,0.8,0.4,0.3,�k,3.8,��
2013/09/22,08:50,0.9,0.6,0.9,0.8,0.8,0.4,0.3,�k,3.9,��
2013/09/22,09:00,0.9,0.6,0.9,0.8,0.8,0.4,0.3,�k�k��,3.6,��
2013/09/22,09:10,0.9,0.6,0.9,0.8,0.8,0.4,0.3,�k,3.8,��
2013/09/22,09:20,0.9,0.6,0.9,0.8,0.8,0.4,0.3,�k�k��,3.7,��
2013/09/22,09:30,0.9,0.6,0.9,0.8,0.8,0.4,0.3,�k�k��,4.1,��
2013/09/22,09:40,0.9,0.6,0.9,0.8,0.8,0.4,0.3,�k,4.2,��
2013/09/22,09:50,0.9,0.6,0.9,0.8,0.8,0.4,0.3,�k,4.7,��
2013/09/22,10:00,0.9,0.6,0.9,0.8,0.8,0.4,0.3,�k,5.0,��
2013/09/22,10:10,0.9,0.6,0.9,0.8,0.8,0.4,0.3,�k�k��,5.3,��
2013/09/22,10:20,0.9,0.6,0.9,0.8,0.8,0.4,0.3,�k,6.0,��
2013/09/22,10:30,0.9,0.6,0.9,0.8,0.8,0.4,0.3,�k�k��,5.0,��
2013/09/22,10:40,0.9,0.6,0.9,0.8,0.8,0.4,0.3,�k�k��,5.1,��
2013/09/22,10:50,0.9,0.6,0.9,0.8,0.8,0.4,0.3,�k�k��,6.4,��
2013/09/22,11:00,0.9,0.6,0.9,0.8,0.8,0.4,0.3,�k�k��,8.5,��
2013/09/22,11:10,0.9,0.6,0.9,0.8,0.8,0.4,0.3,�k�k��,8.6,��
2013/09/22,11:20,0.9,0.6,0.9,0.8,0.8,0.4,0.3,�k�k��,6.6,��
2013/09/22,11:30,0.9,0.6,0.9,0.8,0.8,0.4,0.3,�k��,7.8,��
2013/09/22,11:40,0.9,0.6,0.9,0.8,0.8,0.4,0.3,�k��,6.2,��
2013/09/22,11:50,0.9,0.6,0.9,0.8,0.8,0.4,0.3,�k�k��,6.7,��
2013/09/22,12:00,0.9,0.6,0.9,0.8,0.8,0.4,0.3,�k�k��,7.9,��
2013/09/22,12:10,0.9,0.6,0.9,0.8,0.8,0.4,0.3,�k�k��,7.3,��
2013/09/22,12:20,0.9,0.6,0.9,0.8,0.8,0.4,0.3,�k�k��,7.5,��
2013/09/22,12:30,0.9,0.6,0.9,0.8,0.8,0.4,0.3,�k��,5.8,��
2013/09/22,12:40,0.9,0.6,0.9,0.8,0.8,0.4,0.3,�k��,5.8,��
2013/09/22,12:50,0.9,0.6,0.9,0.8,0.8,0.4,0.3,�k��,6.7,��
2013/09/22,13:00,0.9,0.6,0.9,0.8,0.8,0.4,0.3,�k��,5.9,��
2013/09/22,13:10,0.9,0.6,0.9,0.8,0.8,0.4,0.3,�k��,6.5,��
2013/09/22,13:20,0.9,0.6,0.9,0.8,0.8,0.4,0.3,�k��,5.8,��
2013/09/22,13:30,0.9,0.6,0.9,0.8,0.8,0.4,0.3,�k�k��,7.3,��
2013/09/22,13:40,0.9,0.6,0.9,0.8,0.8,0.4,0.3,�k��,7.0,��
2013/09/22,13:50,0.9,0.6,0.9,0.8,0.8,0.4,0.3,�k��,6.3,��
2013/09/22,14:00,0.9,0.6,0.9,0.8,0.8,0.4,0.3,�k��,5.5,��
2013/09/22,14:10,0.9,0.6,0.9,0.8,0.8,0.4,0.3,�k��,5.5,��
2013/09/22,14:20,0.9,0.6,0.9,0.8,0.8,0.4,0.3,�k�k��,5.9,��
2013/09/22,14:30,0.9,0.6,0.9,0.8,0.8,0.4,0.3,�k��,5.3,��
2013/09/22,14:40,0.9,0.6,0.9,0.8,0.8,0.4,0.3,�k��,4.8,��
2013/09/22,14:50,0.9,0.6,0.9,0.8,0.8,0.4,0.3,�k��,4.5,��
2013/09/22,15:00,0.9,0.6,0.9,0.8,0.8,0.4,0.3,�k��,4.6,��
2013/09/22,15:10,0.9,0.6,0.9,0.8,0.8,0.4,0.3,�k�k��,5.3,��
2013/09/22,15:20,0.9,0.6,0.9,0.8,0.8,0.4,0.3,�k�k��,4.8,��
2013/09/22,15:30,0.9,0.6,0.9,0.8,0.8,0.4,0.3,�k�k��,4.7,��
2013/09/22,15:40,0.9,0.6,0.9,0.8,0.8,0.4,0.3,�k�k��,5.4,��
2013/09/22,15:50,0.9,0.6,0.9,0.8,0.8,0.4,0.3,�k�k��,5.6,��
2013/09/22,16:00,0.9,0.6,0.9,0.8,0.8,0.4,0.3,�k�k��,5.2,��
2013/09/22,16:10,0.9,0.6,0.9,0.8,0.8,0.4,0.3,�k��,5.3,��
2013/09/22,16:20,0.9,0.6,0.9,0.8,0.8,0.4,0.3,�k��,5.8,��
2013/09/22,16:30,0.9,0.6,0.9,0.8,0.8,0.4,0.3,�k��,5.6,��
2013/09/22,16:40,0.9,0.6,0.9,0.8,0.8,0.4,0.3,�k�k��,5.3,��
2013/09/22,16:50,0.9,0.6,0.9,0.8,0.8,0.4,0.3,�k�k��,6.1,��
2013/09/22,17:00,0.9,0.6,0.9,0.8,0.8,0.4,0.3,�k��,7.0,��
2013/09/22,17:10,0.9,0.6,0.9,0.8,0.8,0.4,0.3,�k��,6.2,��
2013/09/22,17:20,0.9,0.6,0.9,0.8,0.8,0.4,0.3,�k�k��,7.1,��
2013/09/22,17:30,0.9,0.6,0.9,0.8,0.8,0.4,0.3,�k�k��,7.0,��
2013/09/22,17:40,0.9,0.6,0.9,0.8,0.8,0.4,0.3,�k��,7.6,��
2013/09/22,17:50,0.9,0.6,0.9,0.8,0.8,0.4,0.3,�k��,6.7,��
2013/09/22,18:00,0.9,0.6,0.9,0.8,0.8,0.4,0.3,�k��,7.0,��
2013/09/22,18:10,0.9,0.6,0.9,0.8,0.8,0.4,0.3,�k��,6.7,��
2013/09/22,18:20,0.9,0.6,0.9,0.8,0.8,0.4,0.3,�k�k��,7.5,��
2013/09/22,18:30,0.9,0.6,0.9,0.8,0.8,0.4,0.3,�k��,6.6,��
2013/09/22,18:40,0.9,0.6,0.9,0.8,0.8,0.4,0.3,�k��,7.9,��
2013/09/22,18:50,0.9,0.6,0.9,0.8,0.8,0.4,0.3,�k��,8.4,��
2013/09/22,19:00,0.9,0.6,0.9,0.8,0.8,0.4,0.3,�k��,7.0,��
2013/09/22,19:10,0.9,0.6,0.9,0.8,0.8,0.4,0.3,�k��,5.9,��
2013/09/22,19:20,0.9,0.6,0.9,0.8,0.8,0.4,0.3,�k��,6.6,��
2013/09/22,19:30,0.9,0.6,0.9,0.8,0.8,0.4,0.3,�k��,6.7,��
2013/09/22,19:40,0.9,0.6,0.9,0.8,0.8,0.4,0.3,�k��,8.5,��
2013/09/22,19:50,0.9,0.6,0.9,0.8,0.8,0.4,0.3,�k��,7.0,��
2013/09/22,20:00,0.9,0.6,0.9,0.8,0.8,0.4,0.3,�k�k��,6.7,��
2013/09/22,20:10,0.9,0.6,0.9,0.8,0.8,0.4,0.3,�k��,7.2,��
2013/09/22,20:20,0.9,0.6,0.9,0.8,0.8,0.4,0.3,�k��,6.6,��
2013/09/22,20:30,0.9,0.6,0.9,0.8,0.8,0.4,0.3,�k��,8.5,��
2013/09/22,20:40,0.9,0.6,0.9,0.8,0.8,0.4,0.3,�k��,7.0,��
2013/09/22,20:50,0.9,0.6,0.9,0.8,0.8,0.4,0.3,�k��,5.9,��
2013/09/22,21:00,0.9,0.6,0.9,0.8,0.8,0.4,0.3,�k��,7.6,��
2013/09/22,21:10,0.9,0.6,0.9,0.8,0.8,0.4,0.3,�k��,7.6,��
2013/09/22,21:20,0.9,0.6,0.9,0.8,0.8,0.4,0.3,�k��,6.8,��
2013/09/22,21:30,0.9,0.6,0.9,0.8,0.8,0.4,0.3,�k��,7.5,��
2013/09/22,21:40,0.9,0.6,0.9,0.8,0.8,0.4,0.3,�k��,7.7,��
2013/09/22,21:50,0.9,0.6,0.9,0.8,0.8,0.4,0.3,�k��,6.3,��
2013/09/22,22:00,0.9,0.6,0.9,0.8,0.8,0.4,0.3,�k��,6.6,��
2013/09/22,22:10,0.9,0.6,0.9,0.8,0.8,0.4,0.3,�k��,6.6,��
2013/09/22,22:20,0.9,0.6,0.9,0.8,0.8,0.4,0.3,�k��,7.3,��
2013/09/22,22:30,0.9,0.6,0.9,0.8,0.8,0.4,0.3,�k��,6.9,��
2013/09/22,22:40,0.9,0.6,0.9,0.8,0.8,0.4,0.3,�k��,7.4,��
2013/09/22,22:50,0.9,0.6,0.9,0.8,0.8,0.4,0.3,�k��,5.5,�L
2013/09/22,23:00,0.9,0.6,0.9,0.8,0.8,0.4,0.3,�k��,6.8,��
2013/09/22,23:10,0.9,0.6,0.9,0.8,0.8,0.4,0.3,�k��,7.8,��
2013/09/22,23:20,0.9,0.6,0.9,0.8,0.8,0.4,0.3,�k��,6.7,��
2013/09/22,23:30,0.9,0.6,0.9,0.8,0.8,0.4,0.3,�k��,6.8,��
2013/09/22,23:40,0.9,0.6,0.9,0.8,0.8,0.4,0.3,�k��,6.7,��
2013/09/22,23:50,0.9,0.6,0.9,0.8,0.8,0.4,0.3,�k�k��,6.2,��
